This demonstration page uses our WeatherBlox Daily Observations layout. Learn more.

Left ArrowRight Arrow

Hourly Observations for May 7, 2018

Temp ( °F °C ) Dew Point ( °F °C ) Humidity (%) Winds ( mph kmh ) Pressure ( in mb ) Visibility ( mi km ) Precip ( " mm )
12:53 am 00:53 Clear 58 14.4 47 8.3 67 67 Calm 30.05 1018 10 16 0.00 0.00
1:53 am 01:53 Clear 59 15 45 7.2 60 60 N 5 7 30.06 1018 10 16 0.00 0.00
2:53 am 02:53 Clear 59 15 45 7.2 60 60 NNW 3 6 30.06 1018 10 16 0.00 0.00
3:53 am 03:53 Clear 54 12.2 46 7.8 75 75 NNE 3 6 30.06 1018 10 16 0.00 0.00
4:53 am 04:53 Clear 56 13.3 46 7.8 70 70 N 3 6 30.07 1018 10 16 0.00 0.00
5:53 am 05:53 Clear 54 12.2 46 7.8 75 75 NNW 3 6 30.07 1018 10 16 0.00 0.00
6:53 am 06:53 Sunny 56 13.3 47 8.3 72 72 NW 5 7 30.09 1019 10 16 0.00 0.00
7:53 am 07:53 Sunny 62 16.7 47 8.3 58 58 N 5 7 30.09 1019 10 16 0.00 0.00
8:53 am 08:53 Sunny 68 20 47 8.3 47 47 NNE 6 9 30.08 1019 10 16 0.00 0.00
9:53 am 09:53 Sunny 72 22.2 47 8.3 41 41 NNW 6 9 30.07 1018 10 16 0.00 0.00
10:53 am 10:53 Sunny 77 25 47 8.3 35 35 Calm 30.07 1018 10 16 0.00 0.00
11:53 am 11:53 Sunny 79 26.1 48 8.9 34 34 Calm 30.07 1018 10 16 0.00 0.00
12:53 pm 12:53 Sunny 82 27.8 46 7.8 28 28 Calm 30.05 1018 10 16 0.00 0.00
1:53 pm 13:53 Sunny 84 28.9 45 7.2 25 25 VRB 7 11 30.04 1017 10 16 0.00 0.00
2:53 pm 14:53 Sunny 86 30 44 6.7 23 23 E 6 9 30.02 1017 10 16 0.00 0.00
3:53 pm 15:53 Sunny 87 30.6 43 6.1 21 21 E 8 13 29.99 1016 10 16 0.00 0.00
4:53 pm 16:53 Sunny 87 30.6 41 5 20 20 ESE 5 7 29.97 1015 10 16 0.00 0.00
5:53 pm 17:53 Sunny 87 30.6 42 5.6 21 21 undefined N/A 29.96 1015 10 16 0.00 0.00
6:53 pm 18:53 Sunny 87 30.6 43 6.1 21 21 Calm 29.96 1014 10 16 0.00 0.00
7:53 pm 19:53 Sunny 82 27.8 49 9.4 32 32 Calm 29.95 1014 10 16 0.00 0.00
8:53 pm 20:53 Clear 75 23.9 52 11.1 45 45 Calm 29.96 1015 10 16 0.00 0.00
9:53 pm 21:53 Clear 72 22.2 51 10.6 48 48 Calm 29.97 1015 10 16 0.00 0.00
10:53 pm 22:53 Clear 68 20 54 12.2 61 61 N 5 7 29.98 1015 10 16 0.00 0.00
11:53 pm 23:53 Clear 65 18.3 54 12.2 68 68 Calm 29.98 1015 10 16 0.00 0.00

Powered by AerisWeather